Погода в Кендзежин-Козле

Польша     50°20′31″N   18°15′00″E
темп.,
°C
ветер,
м/с
пор.,
м/с
влажн.,
%
обл.,
%
осадки,
мм/ч
давл.,
гПа
погр.,
м
1 марта, пн
пн101:00+3с478469 0.0 1034578
04:00+3с3487100 0.0 1034362
07:00+2ссз2385100 0.0 1035292
10:00+3сз2281100 0.0 1036331
13:00+6ссв226883 0.0 1036651
16:00+7св11649 0.0 1035606
19:00+4в11775 0.0 103522
22:00+3ююв12820 0.0 103622
2 марта, вт
вт201:00+2ю22860 0.0 103622
04:00+1ю23860 0.0 103524
07:00+1ююз23800 0.0 103539
10:00+7юз23490 0.0 1034244
13:00+11зсз12400 0.0 1034517
16:00+12зсз12470 0.0 1032570
19:00+8сз11630 0.0 103322
22:00+6зсз01710 0.0 103422
3 марта, ср
ср301:00+5всв11790 0.0 103322
04:00+3ююз11840 0.0 103222
07:00+3ю12840 0.0 103222
10:00+8ююв22600 0.0 1031254
13:00+12ю23440 0.0 1028532
16:00+12ю35470 0.0 1026549
19:00+8ююз5115924 0.0 1025308
22:00+6ююз5116542 0.0 1024289
4 марта, чт
чт401:00+5ююз487421 0.0 1022208
04:00+4ююз35800 0.0 1021106
07:00+3ююз36829 0.0 1019105
10:00+9ююз356223 0.0 1017269
13:00+13з244829 0.0 10161179
16:00+12сз245664 0.0 10131000
19:00+9с237782 0.0 1013139
22:00+7с3484100 0.1 1012300
5 марта, пт
пт501:00+6с2390100 1.6 1010258
04:00+6зсз1193100 1.4 1009128
07:00+6с3694100 2.6 1009386
10:00+3с5895100 3.6 1010513
13:00+2ссз71094100 4.6 1013545
16:00+1с6987100 0.3 1016754
19:000с5972100 0.5 10201140
22:00−1с496247 0.0 1023454